Home   Weather   Slough   Past weeks

Flag for United Kingdom Past Weather in Slough, England, United Kingdom — Yesterday and Last 2 Weeks

54 °F

Scattered clouds.

Feels Like: 50 °F
Forecast: 48 / 53 °F
Wind: 13 mph from East

Location: London City Airport

Current Time: Oct 23, 2016 at 5:12:03 PM

Latest Report: Oct 23, 2016 at 4:50 PM

Visibility: N/A

Pressure: 29.86 "Hg

Humidity: 67%

Dew Point: 43 °F

Location of SloughLocation

Past Weather in Slough — Graph


Slough Temperature Yesterday

Maximum temperature yesterday: 57 °F (at 1:50 PM)
Minimum temperature yesterday: 46 °F (at 2:20 AM)
Average temperature yesterday: 51 °F

High & Low Weather Summary for the Past Weeks

High64 °F (Oct 17, 1:20 PM)94% (Oct 12, 3:20 AM)30.36 "Hg (Oct 12, 3:20 AM)
Low45 °F (Oct 11, 4:50 AM)47% (Oct 18, 5:50 PM)29.65 "Hg (Oct 14, 10:20 PM)
Average54 °F76%30.05 "Hg
* Reported Oct 8 3:20 PM — Oct 23 3:50 PM, Slough, Weather by CustomWeather, © 2016

Note: Actual official high and low records may vary slightly from our data, if they occured in-between our weather recording intervals... More about our weather records


Slough Weather History for the Previous 24 Hours

Scroll right to see more
Time TempWeatherWind HumidityBarometerVisibility
3:50 PM
Sun, Oct 23
55 °FPassing clouds.14 mph63%29.83 "HgN/A
3:20 PM55 °FPassing clouds.15 mph67%29.86 "HgN/A
2:50 PM55 °FScattered clouds.17 mph63%29.83 "HgN/A
2:20 PM55 °FScattered clouds.14 mph63%29.86 "HgN/A
1:50 PM55 °FScattered clouds.16 mph63%29.86 "HgN/A
1:20 PM54 °FScattered clouds.14 mph72%29.86 "HgN/A
12:50 PM54 °FScattered clouds.16 mph67%29.86 "HgN/A
12:20 PM54 °FScattered clouds.14 mph67%29.89 "HgN/A
11:50 AM54 °FPassing clouds.14 mph72%29.89 "HgN/A
11:20 AM54 °FScattered clouds.14 mph67%29.89 "HgN/A
10:50 AM52 °FPartly sunny.12 mph72%29.92 "HgN/A
10:20 AM50 °FScattered clouds.7 mph76%29.92 "HgN/A
9:50 AM50 °FCool.7 mph76%29.89 "Hg5 mi
9:20 AM48 °FPassing clouds.6 mph82%29.89 "Hg5 mi
8:50 AM46 °FScattered clouds.3 mph87%29.92 "Hg4 mi
8:20 AM46 °FPassing clouds.3 mph87%29.92 "Hg4 mi
7:50 AM46 °FCool.3 mph87%29.92 "Hg5 mi
7:20 AM45 °FQuite cool.3 mph93%29.89 "Hg5 mi
6:50 AM46 °FPassing clouds.5 mph87%29.89 "Hg6 mi
6:20 AM46 °FPassing clouds.3 mph93%29.89 "Hg6 mi
5:50 AM46 °FPassing clouds.2 mph87%29.89 "HgN/A
5:20 AM46 °FPassing clouds.2 mph87%29.89 "HgN/A
4:50 AM46 °FPassing clouds.3 mph93%29.89 "HgN/A
4:20 AM46 °FCool.3 mph93%29.92 "HgN/A
3:50 AM46 °FCool.3 mph87%29.92 "HgN/A
3:20 AM46 °FPassing clouds.3 mph93%29.92 "HgN/A
2:50 AM46 °FPassing clouds.2 mph93%29.92 "HgN/A
2:20 AM48 °FPassing clouds.3 mph87%29.92 "HgN/A
1:50 AM48 °FCool.No wind87%29.95 "HgN/A
1:20 AM48 °FPassing clouds.3 mph87%29.95 "HgN/A
12:50 AM48 °FPassing clouds.2 mph87%29.95 "HgN/A
12:20 AM48 °FPassing clouds.2 mph87%29.95 "HgN/A
11:50 PM
Sat, Oct 22
50 °FPassing clouds.2 mph82%29.95 "HgN/A
11:20 PM50 °FCool.3 mph82%29.95 "HgN/A
10:50 PM50 °FCool.3 mph82%29.95 "HgN/A
10:20 PM50 °FCool.3 mph82%29.95 "HgN/A
9:50 PM50 °FCool.3 mph82%29.95 "HgN/A
9:20 PM52 °FCool.6 mph77%29.98 "HgN/A
8:50 PM52 °FCool.6 mph77%29.98 "HgN/A
8:20 PM54 °FCool.9 mph72%29.98 "HgN/A
7:50 PM54 °FCool.7 mph72%29.98 "HgN/A
7:20 PM54 °FCool.7 mph72%29.98 "HgN/A
6:50 PM54 °FPassing clouds.8 mph72%29.98 "HgN/A
6:20 PM55 °FPassing clouds.7 mph67%29.98 "HgN/A
5:50 PM55 °FPassing clouds.7 mph67%29.98 "HgN/A
5:20 PM55 °FPassing clouds.8 mph63%29.98 "HgN/A
Weather by CustomWeather, © 2016

See weather overviewHow to use our weather pages